Date,TemperatureHighF,TemperatureAvgF,TemperatureLowF,DewpointHighF,DewpointAvgF,DewpointLowF,HumidityHigh,HumidityAvg,HumidityLow,PressureMaxIn,PressureMinIn,WindSpeedMaxMPH,WindSpeedAvgMPH,GustSpeedMaxMPH,PrecipitationSumIn
2014-2-6,42,34,26,28,25,21,85,70,54,30.38,30.22,2,0,0,0.00
2014-2-7,52,36,23,32,26,21,92,69,36,30.41,30.29,2,0,0,0.00
2014-2-8,55,41,31,35,31,28,88,71,41,30.31,30.17,2,0,0,0.00
2014-2-9,55,41,28,38,33,26,92,76,50,30.24,30.09,3,1,0,0.00
2014-2-10,45,40,32,41,37,29,92,87,81,30.22,30.11,1,0,0,0.00
2014-2-11,37,33,30,35,31,28,93,92,92,30.37,30.21,2,1,0,0.00
2014-2-12,31,28,24,29,26,22,93,92,90,30.36,29.91,4,2,0,0.00
2014-5-13,79,70,63,61,60,59,88,73,52,30.16,30.09,0,0,0,0.00
2014-5-14,78,66,56,65,60,53,90,81,59,30.16,29.97,2,0,0,0.00
2014-5-15,67,60,49,61,56,44,90,85,72,30.04,29.93,2,0,0,0.00
2014-5-16,63,52,42,52,42,35,89,70,44,30.18,30.01,3,1,0,0.00
2014-5-17,59,48,37,50,43,34,91,84,59,30.29,30.19,1,0,0,0.00
2014-5-18,57,51,50,54,46,-100,90,88,90,30.31,30.24,0,0,0,0.00
2014-5-27,81,70,59,71,64,56,92,82,66,30.19,30.04,1,0,0,0.00
2014-5-28,83,71,59,68,62,56,90,76,50,30.10,30.01,1,0,0,0.00
2014-5-29,80,69,60,70,63,57,92,83,63,30.08,30.02,2,0,0,0.00
2014-5-30,84,73,63,69,64,60,89,76,53,30.09,30.06,1,0,0,0.00
2014-5-31,80,70,60,68,64,57,89,80,64,30.16,30.08,1,0,0,0.00
2014-6-1,71,63,62,63,53,-100,89,79,74,30.27,30.16,1,0,0,0.00
2014-6-2,74,65,55,58,56,52,90,74,54,30.29,30.18,2,0,0,0.00
2014-6-3,82,68,54,68,61,51,90,80,61,30.21,30.03,1,0,0,0.00
2014-6-4,84,72,57,70,64,54,89,78,56,30.04,29.87,1,0,0,0.00
2014-6-5,84,75,66,68,65,62,88,73,52,29.91,29.80,2,0,0,0.00
2014-6-6,83,72,63,71,65,60,92,81,59,29.96,29.88,1,0,0,0.00
2014-6-7,81,72,62,74,66,59,89,81,62,30.00,29.89,1,0,0,0.00
2014-6-8,81,68,64,72,59,-100,90,79,55,29.97,29.88,2,0,0,0.00
2014-6-9,82,70,58,71,63,55,90,78,56,29.96,29.90,2,0,0,0.00
2014-6-10,82,75,64,71,68,61,91,80,66,29.98,29.93,1,1,0,0.00
2014-6-11,74,70,66,68,66,62,90,85,80,29.96,29.84,1,0,0,0.00
2014-6-12,76,68,65,67,64,62,89,86,73,29.93,29.87,1,0,0,0.00
2014-6-13,77,66,60,69,62,57,92,87,71,29.96,29.89,1,0,0,0.00
2014-6-14,82,69,57,69,62,54,93,79,59,30.06,29.98,1,0,0,0.00
2014-6-15,83,69,62,71,57,-100,89,80,61,30.17,30.07,1,0,0,0.00
2014-6-16,80,72,67,72,66,64,89,84,71,30.21,30.13,1,0,0,0.00
2014-6-17,86,75,62,72,67,59,89,76,57,30.22,30.13,1,0,0,0.00
2014-6-18,87,74,64,71,67,61,89,79,58,30.16,30.12,1,0,0,0.00
2014-6-19,88,72,64,71,65,61,89,81,52,30.18,30.10,1,0,0,0.00
2014-6-20,85,71,61,68,64,58,91,80,57,30.09,30.00,1,0,0,0.00
2014-6-21,87,78,68,71,66,62,87,69,44,29.99,29.90,1,0,0,0.00
2014-6-22,87,70,64,71,49,-100,89,61,48,29.96,29.88,1,1,0,0.00
2014-6-23,84,79,72,71,69,67,83,71,61,30.05,30.00,1,1,0,0.00
2014-6-24,69,68,68,65,64,64,88,88,88,30.11,30.07,0,0,0,0.00
2014-6-25,82,74,66,72,67,63,91,79,62,30.07,29.99,1,0,0,0.00
2014-6-26,80,70,62,68,64,59,90,82,66,30.09,30.04,0,0,0,0.00
2014-6-27,82,76,67,70,68,64,89,79,62,30.08,30.02,0,0,0,0.00
2014-6-28,83,74,66,70,67,63,89,80,63,30.17,30.14,0,0,0,0.00
2014-6-29,82,64,66,72,44,-100,89,69,66,30.24,30.16,1,0,0,0.00
2014-6-30,79,71,64,73,67,61,90,87,79,30.14,30.01,1,0,0,0.00
2014-7-5,79,70,58,59,57,54,89,67,49,30.29,30.19,2,1,0,0.00
2014-7-6,83,62,57,65,55,54,90,72,53,30.22,30.07,1,0,0,0.00
2014-7-7,85,73,61,70,63,58,90,74,52,30.09,30.01,1,0,0,0.00
2014-7-8,84,77,61,68,65,58,89,68,59,30.06,29.99,2,1,0,0.00
2014-7-9,77,71,67,72,67,64,89,87,79,30.05,30.01,1,0,0,0.00
2014-7-10,79,72,65,71,67,62,90,85,73,30.09,30.02,0,0,0,0.00
2014-7-11,82,73,65,71,66,62,90,81,65,30.17,30.11,0,0,0,0.00
2014-7-12,85,73,68,71,68,65,89,83,60,30.23,30.16,1,0,0,0.00
2014-7-13,84,80,76,71,70,69,83,72,65,30.17,30.04,1,0,0,0.00
2014-7-14,82,73,66,72,68,63,90,85,72,30.06,29.94,1,0,0,0.00
2014-7-15,78,72,68,72,68,64,90,86,76,29.95,29.82,1,0,0,0.00
2014-7-16,81,72,60,62,60,57,90,68,52,29.93,29.87,1,0,0,0.00
2014-7-17,78,68,57,62,58,54,90,71,54,30.06,29.96,1,0,0,0.00
2014-7-18,69,67,65,66,63,60,90,87,81,30.16,30.08,0,0,0,0.00
2014-7-19,65,64,62,62,61,59,91,90,90,30.14,30.09,1,0,0,0.00
2014-7-20,75,71,63,68,65,60,90,84,80,30.10,30.08,1,0,0,0.00
2014-7-21,79,73,68,72,69,65,90,85,78,30.13,30.05,0,0,0,0.00
2014-7-22,81,73,67,70,68,64,90,85,66,30.17,30.08,1,0,0,0.00
2014-7-23,85,74,67,75,69,64,90,83,69,30.14,30.00,1,0,0,0.00
2014-7-24,69,67,66,66,64,63,90,90,90,30.01,29.95,0,0,0,0.00
2014-7-25,84,77,65,69,66,62,89,70,57,30.06,29.99,1,0,0,0.00
2014-7-26,76,62,58,68,58,55,91,88,77,30.05,30.02,0,0,0,0.00
2014-7-27,85,63,66,73,58,62,90,72,67,30.04,29.91,0,0,0,0.00
2014-7-29,78,78,78,61,58,56,56,51,47,29.99,29.98,1,1,0,0.00
2014-7-30,77,67,53,63,58,50,90,74,54,30.10,30.03,1,0,0,0.00
2014-7-31,72,65,59,65,60,56,90,85,79,30.11,30.08,1,0,0,0.00
2014-8-1,78,70,63,67,64,60,90,81,65,30.13,30.06,1,0,0,0.00
2014-8-2,79,68,61,67,63,58,90,84,67,30.12,30.07,1,0,0,0.00
2014-8-3,81,62,61,68,56,58,92,71,59,30.14,30.03,0,0,0,0.00
2014-8-22,82,71,65,75,67,62,91,88,76,30.12,30.01,0,0,0,0.00
2014-8-23,88,76,66,76,69,63,91,81,59,30.03,29.91,1,0,0,0.00
2014-8-24,83,72,67,72,66,64,91,80,68,30.06,29.92,2,0,0,0.00
2014-8-25,78,71,66,67,64,61,87,80,67,30.12,30.06,1,0,0,0.00
2014-8-26,83,70,59,66,62,56,90,76,54,30.19,30.06,1,0,0,0.00
2014-8-27,86,72,57,67,62,54,91,74,51,30.14,30.03,1,0,0,0.00
2014-8-28,89,72,59,70,62,56,93,75,44,30.08,29.99,1,0,0,0.00
2014-8-29,90,74,60,67,61,57,91,69,38,30.13,30.04,1,0,0,0.00
2014-9-6,83,73,65,73,68,62,93,85,70,30.11,29.96,0,0,0,0.00
2014-9-7,84,72,65,73,66,62,94,83,61,30.06,29.96,2,0,0,0.00
2014-9-8,78,71,67,70,67,64,93,87,73,30.12,30.03,2,0,0,0.00
2014-9-9,81,70,65,70,66,62,91,87,68,30.16,30.06,1,0,0,0.00
2014-9-10,77,70,65,70,66,62,92,87,76,30.14,30.03,1,0,0,0.00
2014-9-11,84,74,67,75,69,64,93,86,70,30.09,29.98,1,0,0,0.00
2014-9-12,84,73,66,75,69,64,93,87,66,30.06,29.98,1,0,0,0.00
2014-9-13,85,73,66,73,68,63,93,83,61,30.13,30.03,1,0,0,0.00
2014-9-14,69,65,62,66,62,59,91,87,86,30.25,30.13,1,0,0,0.00
2014-9-15,76,68,62,70,64,59,92,89,81,30.25,30.12,1,0,0,0.00
2014-9-29,67,64,60,64,61,57,93,91,89,30.11,29.98,0,0,0,0.00
2014-9-30,80,66,54,65,59,52,95,80,50,30.01,29.90,1,0,0,0.00
2014-10-1,82,65,52,66,57,50,95,79,45,30.07,29.96,1,0,0,0.00
2014-10-2,82,66,53,65,59,51,95,79,53,30.16,30.03,1,0,0,0.00
2014-10-3,70,65,60,67,62,58,93,90,84,30.06,29.86,1,0,0,0.00
2014-10-4,60,52,40,58,41,30,92,69,43,30.01,29.87,3,1,0,0.00
2014-10-5,67,46,31,46,36,29,94,73,32,30.11,30.01,1,0,0,0.00
2014-11-1,46,38,35,33,29,27,80,72,59,30.27,29.88,3,2,0,0.00
2014-11-2,57,39,27,29,25,23,88,63,28,30.45,30.27,2,1,0,0.00
2014-11-3,65,41,24,34,28,22,92,66,23,30.56,30.44,2,0,0,0.00
2014-11-4,69,48,34,41,32,24,90,62,18,30.47,30.32,2,0,0,0.00
2014-11-5,63,52,40,52,46,36,90,80,66,30.36,30.22,1,0,0,0.00
2014-11-6,67,56,44,58,46,31,94,72,44,30.22,29.92,4,1,0,0.00
2014-11-7,61,47,35,38,34,31,90,62,36,30.11,29.99,4,1,0,0.00
2014-11-18,33,25,19,16,11,6,75,57,36,30.44,30.12,3,1,0,0.00
2014-11-19,46,29,12,23,15,9,90,62,30,30.50,30.35,2,1,0,0.00
2014-11-20,56,42,31,32,27,22,69,56,33,30.32,30.20,3,1,0,0.00
2014-11-21,61,40,27,33,27,24,90,65,28,30.53,30.31,2,0,0,0.00
2014-11-22,55,43,35,28,24,22,68,47,30,30.57,30.35,2,1,0,0.00
2014-11-23,53,49,42,51,44,27,94,86,43,30.34,29.75,3,2,0,0.00
2014-11-24,70,59,46,58,51,42,94,77,51,29.98,29.80,3,1,0,0.00
2014-11-25,61,50,43,43,33,20,89,56,20,30.13,29.97,1,0,0,0.00
2014-11-26,54,45,37,42,31,16,92,62,24,30.12,29.98,2,1,0,0.00
2014-11-27,41,38,31,36,28,22,88,68,56,30.42,30.06,3,1,0,0.00
2014-11-28,49,33,24,22,20,15,82,62,29,30.47,30.36,2,0,0,0.00
2014-11-29,55,38,24,35,27,20,89,66,35,30.41,30.30,2,0,0,0.00
2014-11-30,63,50,40,51,43,35,92,78,60,30.41,30.30,2,0,0,0.00
2014-12-1,68,50,37,55,45,35,93,83,61,30.47,30.35,2,0,0,0.00
2014-12-2,67,53,41,54,46,39,95,79,55,30.39,30.28,2,0,0,0.00
2014-12-3,67,55,48,54,48,45,90,78,60,30.34,30.25,2,0,0,0.00
2014-12-4,63,52,41,52,47,39,94,86,65,30.39,30.29,1,0,0,0.00
2014-12-5,52,50,47,49,47,45,94,93,90,30.46,30.37,1,1,0,0.00
2014-12-6,54,48,45,52,46,41,95,91,86,30.36,30.14,1,0,0,0.00
2014-12-7,59,47,37,40,34,24,89,65,39,30.40,30.25,3,1,0,0.00
2014-12-8,43,39,34,36,29,19,88,68,40,30.42,30.27,3,1,0,0.00
2014-12-9,50,39,29,37,32,27,94,78,48,30.26,30.11,3,1,0,0.00
2014-12-10,46,33,29,32,26,24,85,66,54,30.20,30.13,3,1,0,0.00
2014-12-11,52,34,24,27,20,16,91,60,26,30.28,30.13,2,1,0,0.00
2014-12-12,60,37,22,26,19,14,87,55,16,30.39,30.28,1,0,0,0.00
2014-12-13,65,42,25,29,21,16,83,52,16,30.29,30.17,2,0,0,0.00
2014-12-14,70,40,26,35,27,22,86,65,19,30.18,30.06,2,0,0,0.00
2014-12-15,62,43,27,42,31,24,92,68,30,30.16,30.09,2,0,0,0.00
2014-12-16,54,47,42,49,41,36,95,81,62,30.17,29.99,4,1,0,0.00
2014-12-17,58,42,29,40,34,27,93,76,47,30.26,30.14,2,0,0,0.00
2014-12-18,54,42,31,39,31,25,91,69,35,30.25,30.15,1,0,0,0.00
2014-12-19,53,40,28,37,33,26,92,77,53,30.24,30.16,2,0,0,0.00
2014-12-20,44,36,40,42,33,37,93,88,85,30.29,30.19,1,0,0,0.00
2014-12-21,47,43,41,43,40,39,94,90,83,30.30,30.19,2,1,0,0.00
2014-12-22,44,42,40,42,40,38,94,93,89,30.19,30.00,2,1,0,0.00
2014-12-23,50,44,40,49,42,38,95,95,94,30.07,29.85,3,1,0,0.00
2014-12-24,52,50,43,51,48,40,96,94,88,29.90,29.70,2,1,0,0.00
2014-12-25,53,41,28,39,33,26,92,75,43,30.32,29.90,2,1,0,0.00
2014-12-26,60,39,25,39,29,23,95,72,30,30.44,30.32,2,0,0,0.00
2014-12-27,61,44,30,44,34,28,93,69,35,30.43,30.27,2,0,0,0.00
2014-12-28,60,52,47,57,50,44,95,93,89,30.27,30.06,1,0,0,0.00
2014-12-29,61,52,47,53,49,45,96,88,70,30.17,30.06,1,0,0,0.00
2014-12-30,55,45,38,45,39,34,95,82,56,30.46,30.13,2,0,0,0.00
2014-12-31,48,39,28,37,32,24,90,77,54,30.52,30.41,2,0,0,0.00
2015-1-1,51,38,24,37,26,22,92,66,34,30.43,30.33,2,0,0,0.00
2015-1-2,48,44,38,47,42,35,95,92,86,30.40,30.31,1,0,0,0.00